Weather History for Danville, KY

Change the Weather History Date:

Wednesday, October 24, 2012

  Actual Average (KLEX) Record (KLEX)
Temperature  
Mean Temperature 64 °F 54 °F  
Max Temperature 77 °F 65 °F 82 °F (1939)
Min Temperature 51 °F 44 °F 24 °F (1981)
Degree Days  
Heating Degree Days 1 11  
Month to date heating degree days 187  
Since 1 July heating degree days 241  
Cooling Degree Days 0 0  
Month to date cooling degree days 23  
Year to date cooling degree days 1186  
Growing Degree Days 14 (Base 50)    
Moisture  
Dew Point 49 °F    
Average Humidity 62    
Maximum Humidity 88    
Minimum Humidity 32    
Precipitation  
Precipitation 0.00 in 0.10 in 1.74 in (1926)
Month to date precipitation 2.38  
Year to date precipitation 36.96  
Snow  
Snow 0.00 in 0.00 in 0.00 in ()
Month to date snowfall 0.0  
Since 1 July snowfall 0.0  
Since 1 September snowfall 0.0  
Snow Depth -    
Sea Level Pressure  
Sea Level Pressure 30.13 in    
Wind  
Wind Speed 4 mph (SSW)    
Max Wind Speed 10 mph    
Max Gust Speed -    
Visibility 10 miles    
Events      
T = Trace of Precipitation, MM = Missing Value Source: NWS Daily Summary

Daily Weather History Graph

Daily Weather History Graph

Search for Another Location

Airport:

Trip Planner

Search our weather history database for the weather conditions in past years. The results will help you decide how hot, cold, wet, or windy it might be!

Date:

Astronomy

Oct. 24, 2012 Rise Set
Actual Time 7:56 AM EDT 6:49 PM EDT
Civil Twilight 7:29 AM EDT 7:16 PM EDT
Nautical Twilight 6:59 AM EDT 7:46 PM EDT
Astronomical Twilight 6:28 AM EDT 8:17 PM EDT
Moon 4:00 PM EDT (10/24) 2:56 AM EDT (10/24)
Length of Visible Light 11h 46m
Length of Day
10h 52m
Waxing Gibbous, 76% of the Moon is Illuminated
Oct 24
Waxing Gibbous
Oct 29
Full
Nov 6
Last Quarter
Nov 13
New
Nov 20
First Quarter

Hourly Weather History & Observations

Time (EDT) Temp. Dew Point Humidity Pressure Visibility Wind Dir Wind Speed Gust Speed Precip Events Conditions
12:15 AM 62.6 °F 48.2 °F 59% 30.10 in 10.0 mi SSW 6.9 mph - N/A   Clear
12:35 AM 62.6 °F 48.2 °F 59% 30.10 in 10.0 mi SSW 5.8 mph - N/A   Clear
12:55 AM 60.8 °F 48.2 °F 63% 30.10 in 10.0 mi SSW 5.8 mph - N/A   Clear
1:15 AM 60.8 °F 48.2 °F 63% 30.10 in 10.0 mi SSW 4.6 mph - N/A   Clear
1:35 AM 60.8 °F 48.2 °F 63% 30.10 in 10.0 mi South 4.6 mph - N/A   Clear
1:55 AM 60.8 °F 48.2 °F 63% 30.10 in 10.0 mi South 5.8 mph - N/A   Clear
2:15 AM 59.0 °F 48.2 °F 67% 30.10 in 10.0 mi SSW 3.5 mph - N/A   Clear
2:35 AM 59.0 °F 48.2 °F 67% 30.11 in 10.0 mi SSW 3.5 mph - N/A   Clear
2:55 AM 59.0 °F 50.0 °F 72% 30.11 in 10.0 mi South 4.6 mph - N/A   Clear
3:15 AM 59.0 °F 50.0 °F 72% 30.12 in 10.0 mi SSW 3.5 mph - N/A   Mostly Cloudy
3:35 AM 59.0 °F 50.0 °F 72% 30.12 in 10.0 mi Calm Calm - N/A   Overcast
3:55 AM 59.0 °F 50.0 °F 72% 30.12 in 10.0 mi South 3.5 mph - N/A   Mostly Cloudy
4:15 AM 59.0 °F 50.0 °F 72% 30.12 in 10.0 mi South 3.5 mph - N/A   Mostly Cloudy
4:35 AM 59.0 °F 50.0 °F 72% 30.12 in 10.0 mi SSW 3.5 mph - N/A   Scattered Clouds
4:55 AM 59.0 °F 50.0 °F 72% 30.12 in 10.0 mi SSW 4.6 mph - N/A   Clear
5:15 AM 59.0 °F 50.0 °F 72% 30.13 in 10.0 mi SSW 4.6 mph - N/A   Clear
5:35 AM 57.2 °F 50.0 °F 77% 30.13 in 10.0 mi SSW 4.6 mph - N/A   Clear
5:55 AM 57.2 °F 50.0 °F 77% 30.14 in 10.0 mi SW 4.6 mph - N/A   Clear
6:15 AM 55.4 °F 50.0 °F 82% 30.15 in 10.0 mi SSW 3.5 mph - N/A   Scattered Clouds
6:35 AM 53.6 °F 50.0 °F 88% 30.16 in 10.0 mi South 3.5 mph - N/A   Scattered Clouds
6:55 AM 53.6 °F 50.0 °F 88% 30.17 in 10.0 mi Calm Calm - N/A   Overcast
7:15 AM 55.4 °F 50.0 °F 82% 30.17 in 10.0 mi South 3.5 mph - N/A   Scattered Clouds
7:35 AM 53.6 °F 50.0 °F 88% 30.17 in 10.0 mi South 3.5 mph - N/A   Scattered Clouds
7:55 AM 51.8 °F 48.2 °F 88% 30.17 in 10.0 mi Calm Calm - N/A   Mostly Cloudy
8:15 AM 53.6 °F 50.0 °F 88% 30.18 in 10.0 mi SW 4.6 mph - N/A   Scattered Clouds
8:35 AM 55.4 °F 50.0 °F 82% 30.18 in 10.0 mi SSW 3.5 mph - N/A   Clear
8:55 AM 55.4 °F 50.0 °F 82% 30.18 in 10.0 mi SSW 3.5 mph - N/A   Clear
9:15 AM 59.0 °F 51.8 °F 77% 30.19 in 10.0 mi Calm Calm - N/A   Clear
9:35 AM 60.8 °F 51.8 °F 72% 30.19 in 10.0 mi Calm Calm - N/A   Clear
9:55 AM 62.6 °F 51.8 °F 68% 30.19 in 10.0 mi South 5.8 mph - N/A   Clear
10:15 AM 62.6 °F 51.8 °F 68% 30.20 in 10.0 mi South 5.8 mph - N/A   Clear
10:35 AM 64.4 °F 51.8 °F 64% 30.20 in 10.0 mi South 6.9 mph - N/A   Clear
10:55 AM 64.4 °F 51.8 °F 64% 30.20 in 10.0 mi SSW 4.6 mph - N/A   Scattered Clouds
11:15 AM 66.2 °F 51.8 °F 60% 30.19 in 10.0 mi South 5.8 mph - N/A   Scattered Clouds
11:35 AM 68.0 °F 53.6 °F 60% 30.19 in 10.0 mi South 6.9 mph - N/A   Clear
11:55 AM 69.8 °F 53.6 °F 56% 30.18 in 10.0 mi South 5.8 mph - N/A   Clear
12:15 PM 71.6 °F 51.8 °F 50% 30.18 in 10.0 mi South 6.9 mph - N/A   Clear
12:35 PM 71.6 °F 51.8 °F 50% 30.17 in 10.0 mi SSW 6.9 mph - N/A   Clear
12:55 PM 73.4 °F 50.0 °F 44% 30.16 in 10.0 mi SSW 6.9 mph - N/A   Clear
1:15 PM 73.4 °F 50.0 °F 44% 30.15 in 10.0 mi South 6.9 mph - N/A   Clear
1:35 PM 73.4 °F 51.8 °F 47% 30.13 in 10.0 mi SSW 6.9 mph - N/A   Clear
1:55 PM 73.4 °F 50.0 °F 44% 30.12 in 10.0 mi SSW 8.1 mph - N/A   Clear
2:15 PM 75.2 °F 48.2 °F 38% 30.12 in 10.0 mi South 6.9 mph - N/A   Clear
2:35 PM 77.0 °F 48.2 °F 36% 30.11 in 10.0 mi SSW 9.2 mph - N/A   Clear
2:55 PM 77.0 °F 48.2 °F 36% 30.11 in 10.0 mi SSW 10.4 mph - N/A   Clear
3:15 PM 77.0 °F 46.4 °F 34% 30.10 in 10.0 mi South 8.1 mph - N/A   Clear
3:35 PM 77.0 °F 46.4 °F 34% 30.10 in 10.0 mi SSE 8.1 mph - N/A   Clear
3:55 PM 77.0 °F 46.4 °F 34% 30.09 in 10.0 mi South 6.9 mph - N/A   Clear
4:15 PM 77.0 °F 46.4 °F 34% 30.09 in 10.0 mi SSW 8.1 mph - N/A   Clear
4:35 PM 77.0 °F 44.6 °F 32% 30.09 in 10.0 mi South 4.6 mph - N/A   Clear
4:55 PM 77.0 °F 44.6 °F 32% 30.09 in 10.0 mi South 6.9 mph - N/A   Clear
5:15 PM 77.0 °F 44.6 °F 32% 30.08 in 10.0 mi South 6.9 mph - N/A   Clear
5:35 PM 77.0 °F 44.6 °F 32% 30.08 in 10.0 mi SSW 5.8 mph - N/A   Clear
5:55 PM 73.4 °F 44.6 °F 36% 30.07 in 10.0 mi South 3.5 mph - N/A   Clear
6:35 PM 69.8 °F 48.2 °F 46% 30.08 in 10.0 mi Calm Calm - N/A   Clear
6:55 PM 68.0 °F 46.4 °F 46% 30.08 in 10.0 mi Calm Calm - N/A   Clear
7:15 PM 62.6 °F 46.4 °F 55% 30.08 in 10.0 mi Calm Calm - N/A   Clear
7:35 PM 62.6 °F 46.4 °F 55% 30.09 in 10.0 mi Calm Calm - N/A   Clear
7:55 PM 62.6 °F 46.4 °F 55% 30.09 in 10.0 mi Calm Calm - N/A   Clear
8:35 PM 59.0 °F 46.4 °F 63% 30.09 in 10.0 mi Calm Calm - N/A   Clear
9:15 PM 57.2 °F 46.4 °F 67% 30.10 in 10.0 mi Calm Calm - N/A   Clear
9:35 PM 55.4 °F 46.4 °F 72% 30.10 in 10.0 mi Calm Calm - N/A   Clear
9:55 PM 53.6 °F 44.6 °F 72% 30.10 in 10.0 mi Calm Calm - N/A   Clear
10:15 PM 53.6 °F 44.6 °F 72% 30.10 in 10.0 mi Calm Calm - N/A   Clear
10:55 PM 53.6 °F 44.6 °F 72% 30.09 in 10.0 mi Calm Calm - N/A   Clear
11:15 PM 51.8 °F 44.6 °F 76% 30.09 in 10.0 mi Calm Calm - N/A   Clear
11:35 PM 51.8 °F 44.6 °F 76% 30.10 in 10.0 mi Calm Calm - N/A   Clear
11:55 PM 51.8 °F 44.6 °F 76% 30.10 in 10.0 mi Calm Calm - N/A   Clear